MMS 3

Last updated on June 18, 2021, 1:39 p.m. UTC

1 40484U 15011C   21168.46557962 -.00000428  00000-0  00000-0 0  9995
2 40484  33.4755 116.7951 8440556  33.2846 170.3468  0.28545309 12005
UTC
Height (km)
Latitude
Longitude
Inclination
Orbital Period
UTC large
Height (km)
Speed (km/s)
/
Latitude / Longitude
Inclination (degrees)
Orbital Period (minutes)
Azimuth
Elevation
Range (km)
Doppler Factor
iOS Compass Heading
iOS Angle

Next 30 passes for location: Hong Kong

Rise time Rise Azimuth (degrees) Set time Set Azimuth (degrees) Duration Max altitude (degrees)

No matching passes for this satellites